User: anonymous   Login
Location: Ay?beleni
(36.6500°N, 30.3000°E)
Time: 17:20:38
(UTC+00:00)
Language:

HJ-1C - Orbit

View from above orbital plane
View from above orbital plane
View from above satellite
View from above satellite

Ground track
Ground track

The orbit data is extracted from the following two-line orbital elements,

1 38997U 12064A   21216.22013912  .00003457  00000-0  75555-4 0  9991
2 38997  97.1167 244.2097 0007417 311.1056 113.3023 15.44821612489450
Epoch (UTC): 04 August 2021 05:17:00
Eccentricity: 0.0007417
inclination: 97.1167°
perigee height: 427 km
apogee height: 437 km
right ascension of ascending node: 244.2097°
argument of perigee: 311.1056°
revolutions per day: 15.44821612
mean anomaly at epoch: 113.3023°
orbit number at epoch: 48945

The dashed part of the orbit path shows where the satellite is in the earth's shadow,  

DLR